Location: Cran-Gévrier
(45.9039°N, 6.1012°E)
Time: 10:26:37
(UTC+00:00)

Cosmos 2369 Rocket - Pass Details

Date: 09 February 2023
Orbit: 829 x 851 km, 71.0° (Epoch: 20 March)

Event Time Altitude Azimuth Distance (km) Brightness Sun altitude
Rises 20:24:36 0° 335° (NNW) 3,382 5.9 -37.0°
Reaches altitude 10° 20:27:05 10° 339° (NNW) 2,446 5.0 -37.4°
Enters shadow 20:28:22 17° 342° (NNW) 1,972 4.4 -37.6°
